Jackson Hawkins Field, MS

5:14 AM CDT on July 23, 2017 (GMT -0500)
Hawkins

Weather History for KHKS - July, 2013

Change the Weather History Date:

Monday, July 8, 2013

  Actual Average (KJAN) Record (KJAN)
Temperature  
Mean Temperature 82 °F -  
Max Temperature 91 °F 92 °F 103 °F (1907)
Min Temperature 73 °F 70 °F 60 °F (1972)
Cooling Degree Days 17    
Growing Degree Days 32 (Base 50)    
Moisture  
Dew Point 72 °F    
Average Humidity 80    
Maximum Humidity 97    
Minimum Humidity 52    
Precipitation  
Precipitation 0.00 in - - ()
Sea Level Pressure  
Sea Level Pressure 30.11 in    
Wind  
Wind Speed 4 mph (SSW)    
Max Wind Speed 8 mph    
Max Gust Speed -    
Visibility 10 miles    
Events      
Averages and records for this station are not official NWS values.
T = Trace of Precipitation, MM = Missing Value Source: NWS Daily Summary

Daily Weather History Graph

Daily Weather History Graph

Search for Another Location

Airport or City:

Trip Planner

Search our weather history database for the weather conditions in past years. The results will help you decide how hot, cold, wet, or windy it might be!

Date:

Astronomy

Jul. 08, 2013 Rise Set
Actual Time 6:00 AM CDT 8:10 PM CDT
Civil Twilight 5:32 AM CDT 8:38 PM CDT
Nautical Twilight 4:58 AM CDT 9:13 PM CDT
Astronomical Twilight 4:21 AM CDT 9:49 PM CDT
Moon 6:25 AM CDT (7/8) 8:19 PM CDT (7/8)
Length of Visible Light 15h 05m
Length of Day
14h 09m
New Moon, 0% of the Moon is Illuminated
Jul 8
New Moon
Jul 15
First Quarter
Jul 22
Full
Jul 29
Last Quarter
Aug 6
New

Hourly Weather History & Observations

Time (CDT) Temp. Heat Index Dew Point Humidity Pressure Visibility Wind Dir Wind Speed Gust Speed Precip Events Conditions
12:40 AM 73.4 °F - 71.6 °F 94% 30.10 in 10.0 mi SSE 5.8 mph - N/A   Partly Cloudy
12:53 AM 73.9 °F - 73.0 °F 97% 30.07 in 10.0 mi South 6.9 mph - N/A   Mostly Cloudy
1:39 AM 73.4 °F - 71.6 °F 94% 30.09 in 10.0 mi South 4.6 mph - N/A   Scattered Clouds
1:53 AM 73.9 °F - 72.0 °F 93% 30.06 in 10.0 mi South 4.6 mph - N/A   Scattered Clouds
2:53 AM 73.0 °F - 72.0 °F 96% 30.06 in 10.0 mi SSE 3.5 mph - N/A   Partly Cloudy
3:12 AM 73.4 °F - 71.6 °F 94% 30.09 in 10.0 mi Calm Calm - N/A   Mostly Cloudy
3:53 AM 73.0 °F - 72.0 °F 96% 30.07 in 10.0 mi SSE 4.6 mph - N/A   Scattered Clouds
4:53 AM 73.0 °F - 71.1 °F 93% 30.09 in 10.0 mi SE 3.5 mph - N/A   Clear
5:53 AM 73.0 °F - 71.1 °F 93% 30.11 in 9.0 mi South 3.5 mph - N/A   Mostly Cloudy
6:12 AM 73.4 °F - 71.6 °F 94% 30.14 in 7.0 mi SSE 3.5 mph - N/A   Overcast
6:53 AM 73.0 °F - 72.0 °F 96% 30.13 in 10.0 mi Calm Calm - N/A   Overcast
7:53 AM 73.9 °F - 72.0 °F 93% 30.15 in 10.0 mi SSW 4.6 mph - N/A   Overcast
8:53 AM 73.9 °F - 72.0 °F 93% 30.16 in 10.0 mi South 3.5 mph - N/A   Overcast
9:53 AM 75.9 °F - 73.0 °F 91% 30.15 in 10.0 mi WSW 4.6 mph - N/A   Overcast
10:53 AM 77.0 °F - 72.0 °F 84% 30.16 in 10.0 mi Calm Calm - N/A   Overcast
11:24 AM 77.0 °F - 73.4 °F 89% 30.18 in 10.0 mi SSW 3.5 mph - N/A   Overcast
11:31 AM 78.8 °F - 71.6 °F 78% 30.18 in 10.0 mi SW 3.5 mph - N/A   Overcast
11:53 AM 82.0 °F 86.3 °F 71.1 °F 69% 30.15 in 10.0 mi WSW 4.6 mph - N/A   Overcast
12:53 PM 87.1 °F 92.0 °F 70.0 °F 57% 30.14 in 10.0 mi Calm Calm - N/A   Scattered Clouds
1:53 PM 89.1 °F 94.1 °F 70.0 °F 53% 30.12 in 10.0 mi NW 6.9 mph - N/A   Overcast
2:53 PM 90.0 °F 95.4 °F 70.0 °F 52% 30.11 in 10.0 mi Variable 4.6 mph - N/A   Partly Cloudy
3:53 PM 91.0 °F 97.6 °F 71.1 °F 52% 30.09 in 10.0 mi West 8.1 mph - N/A   Clear
4:53 PM 90.0 °F 96.9 °F 72.0 °F 55% 30.08 in 10.0 mi WNW 4.6 mph - N/A   Clear
5:53 PM 90.0 °F 95.4 °F 70.0 °F 52% 30.07 in 10.0 mi NW 4.6 mph - N/A   Clear
6:53 PM 89.1 °F 95.0 °F 71.1 °F 55% 30.08 in 10.0 mi NW 4.6 mph - N/A   Clear
7:53 PM 82.0 °F 86.3 °F 71.1 °F 69% 30.09 in 10.0 mi NW 4.6 mph - N/A   Clear
8:53 PM 78.1 °F - 72.0 °F 81% 30.09 in 10.0 mi Calm Calm - N/A   Clear
9:53 PM 77.0 °F - 72.0 °F 84% 30.11 in 10.0 mi East 3.5 mph - N/A   Clear
10:53 PM 77.0 °F - 72.0 °F 84% 30.12 in 10.0 mi Calm Calm - N/A   Clear
11:53 PM 79.0 °F - 73.0 °F 82% 30.13 in 10.0 mi South 6.9 mph - N/A   Clear